| time (UTC) | temp F | wind direction | speed MPH | gust MPH | rain 1hr in | rain 24hr in | rain mn in | humidity % | barometer mb |
| 20260902112630 | 83 | 113 | 1.0 | 4.0 | 0.00 | 0.00 | 0.00 | 49 | 1022.3 |
| 20260902112130 | 83 | 110 | 1.0 | 4.0 | 0.00 | 0.00 | 0.00 | 50 | 1022.4 |
| 20260902111629 | 83 | 87 | 2.0 | 4.0 | 0.00 | 0.00 | 0.00 | 50 | 1022.4 |
| 20260902111128 | 83 | 80 | 3.0 | 4.0 | 0.00 | 0.00 | 0.00 | 49 | 1022.4 |
| 20260902110631 | 84 | 65 | 0.0 | 5.0 | 0.00 | 0.00 | 0.00 | 50 | 1022.5 |
| 20260902110446 | 83 | 97 | 1.0 | 5.0 | 0.00 | 0.00 | 0.00 | 51 | 1022.5 |
| 20260902105632 | 83 | 103 | 1.0 | 5.0 | 0.00 | 0.00 | 0.00 | 51 | 1022.6 |
| 20260902105130 | 82 | 89 | 1.0 | 2.0 | 0.00 | 0.00 | 0.00 | 52 | 1022.6 |
| 20260902104630 | 81 | 272 | 0.0 | 3.0 | 0.00 | 0.00 | 0.00 | 52 | 1022.7 |
| 20260902104130 | 82 | 264 | 1.0 | 3.0 | 0.00 | 0.00 | 0.00 | 51 | 1022.8 |
| 20260902103939 | 82 | 316 | 1.0 | 3.0 | 0.00 | 0.00 | 0.00 | 52 | 1022.8 |
| 20260902103130 | 82 | 109 | 0.0 | 5.0 | 0.00 | 0.00 | 0.00 | 53 | 1022.8 |
| 20260902102630 | 81 | 90 | 2.0 | 5.0 | 0.00 | 0.00 | 0.00 | 53 | 1022.9 |
| 20260902102132 | 82 | 69 | 0.0 | 5.0 | 0.00 | 0.00 | 0.00 | 53 | 1022.9 |
| 20260902101628 | 82 | 109 | 3.0 | 5.0 | 0.00 | 0.00 | 0.00 | 51 | 1022.9 |
| 20260902101131 | 82 | 56 | 0.0 | 3.0 | 0.00 | 0.00 | 0.00 | 55 | 1023.0 |
| 20260902100629 | 80 | 137 | 0.0 | 3.0 | 0.00 | 0.00 | 0.00 | 56 | 1022.8 |
| 20260902100442 | 79 | 293 | 1.0 | 3.0 | 0.00 | 0.00 | 0.00 | 57 | 1023.0 |
| 20260902095628 | 79 | 289 | 1.0 | 3.0 | 0.00 | 0.00 | 0.00 | 57 | 1022.9 |
| 20260902095129 | 78 | 227 | 1.0 | 3.0 | 0.00 | 0.00 | 0.00 | 57 | 1022.9 |
| 20260902094628 | 79 | 247 | 0.0 | 3.0 | 0.00 | 0.00 | 0.00 | 56 | 1022.9 |
| 20260902094258 | 78 | 83 | 0.0 | 3.0 | 0.00 | 0.00 | 0.00 | 59 | 1023.0 |
| 20260902094226 | 79 | 303 | 1.0 | 3.0 | 0.00 | 0.00 | 0.00 | 58 | 1022.9 |
| 20260902093446 | 77 | 261 | 0.0 | 3.0 | 0.00 | 0.00 | 0.00 | 60 | 1022.9 |
| 20260902092629 | 78 | 281 | 1.0 | 3.0 | 0.00 | 0.00 | 0.00 | 60 | 1023.0 |
| 20260902092127 | 78 | 276 | 1.0 | 3.0 | 0.00 | 0.00 | 0.00 | 59 | 1022.9 |
| 20260902091626 | 78 | 275 | 0.0 | 3.0 | 0.00 | 0.00 | 0.00 | 59 | 1022.9 |
| 20260902091126 | 78 | 264 | 1.0 | 3.0 | 0.00 | 0.00 | 0.00 | 60 | 1022.8 |
| 20260902090624 | 77 | 278 | 0.0 | 1.0 | 0.00 | 0.00 | 0.00 | 62 | 1022.7 |
| 20260902090440 | 76 | 197 | 0.0 | 2.0 | 0.00 | 0.00 | 0.00 | 62 | 1022.7 |
| 20260902085627 | 75 | 358 | 0.0 | 3.0 | 0.00 | 0.00 | 0.00 | 65 | 1022.7 |
| 20260902085128 | 75 | 151 | 0.0 | 3.0 | 0.00 | 0.00 | 0.00 | 65 | 1022.6 |
| 20260902084626 | 75 | 306 | 1.0 | 2.0 | 0.00 | 0.00 | 0.00 | 64 | 1022.6 |
| 20260902084126 | 75 | 276 | 0.0 | 2.0 | 0.00 | 0.00 | 0.00 | 65 | 1022.5 |
| 20260902083626 | 74 | 288 | 0.0 | 2.0 | 0.00 | 0.00 | 0.00 | 65 | 1022.6 |
| 20260902083127 | 73 | 283 | 0.0 | 2.0 | 0.00 | 0.00 | 0.00 | 68 | 1022.6 |
| 20260902082625 | 73 | 300 | 0.0 | 2.0 | 0.00 | 0.00 | 0.00 | 68 | 1022.6 |
| 20260902082137 | 73 | 290 | 0.0 | 2.0 | 0.00 | 0.00 | 0.00 | 66 | 1022.5 |
| 20260902081624 | 73 | 292 | 0.0 | 4.0 | 0.00 | 0.00 | 0.00 | 68 | 1022.4 |
| 20260902081126 | 73 | 292 | 1.0 | 4.0 | 0.00 | 0.00 | 0.00 | 68 | 1022.4 |
| 20260902080626 | 72 | 285 | 0.0 | 3.0 | 0.00 | 0.00 | 0.00 | 71 | 1022.4 |
| 20260902080125 | 71 | 289 | 0.0 | 2.0 | 0.00 | 0.00 | 0.00 | 71 | 1022.3 |
| 20260902075627 | 71 | 305 | 0.0 | 2.0 | 0.00 | 0.00 | 0.00 | 73 | 1022.3 |
| 20260902075439 | 70 | 298 | 0.0 | 2.0 | 0.00 | 0.00 | 0.00 | 74 | 1022.5 |
| 20260902074626 | 70 | 282 | 1.0 | 3.0 | 0.00 | 0.00 | 0.00 | 73 | 1022.5 |
| 20260902074126 | 70 | 283 | 1.0 | 3.0 | 0.00 | 0.00 | 0.00 | 72 | 1022.3 |
| 20260902073623 | 70 | 303 | 1.0 | 3.0 | 0.00 | 0.00 | 0.00 | 72 | 1022.3 |
| 20260902073126 | 71 | 317 | 1.0 | 3.0 | 0.00 | 0.00 | 0.00 | 71 | 1022.2 |
| 20260902072944 | 71 | 320 | 0.0 | 3.0 | 0.00 | 0.00 | 0.00 | 72 | 1022.1 |
| 20260902072127 | 71 | 283 | 1.0 | 3.0 | 0.00 | 0.00 | 0.00 | 71 | 1022.2 |
| 20260902071626 | 70 | 300 | 1.0 | 2.0 | 0.00 | 0.00 | 0.00 | 72 | 1022.1 |
| 20260902071125 | 70 | 299 | 0.0 | 1.0 | 0.00 | 0.00 | 0.00 | 73 | 1022.1 |
| 20260902070624 | 70 | 313 | 0.0 | 1.0 | 0.00 | 0.00 | 0.00 | 73 | 1022.1 |
| 20260902070439 | 70 | 282 | 0.0 | 2.0 | 0.00 | 0.00 | 0.00 | 74 | 1022.0 |
| 20260902065625 | 70 | 274 | 1.0 | 2.0 | 0.00 | 0.00 | 0.00 | 73 | 1022.0 |
| 20260902065124 | 70 | 333 | 0.0 | 1.0 | 0.00 | 0.00 | 0.00 | 75 | 1022.0 |
| 20260902064627 | 69 | 179 | 0.0 | 1.0 | 0.00 | 0.00 | 0.00 | 78 | 1022.0 |
| 20260902064123 | 68 | 179 | 0.0 | 1.0 | 0.00 | 0.00 | 0.00 | 79 | 1022.0 |
| 20260902063625 | 67 | 75 | 0.0 | 1.0 | 0.00 | 0.00 | 0.00 | 80 | 1022.0 |
| 20260902063124 | 67 | 75 | 0.0 | 1.0 | 0.00 | 0.00 | 0.00 | 81 | 1021.9 |
| 20260902062623 | 66 | 87 | 0.0 | 0.0 | 0.00 | 0.00 | 0.00 | 83 | 1021.7 |
| 20260902062438 | 65 | 87 | 0.0 | 0.0 | 0.00 | 0.00 | 0.00 | 85 | 1021.8 |
| 20260902061937 | 64 | 233 | 0.0 | 0.0 | 0.00 | 0.00 | 0.00 | 87 | 1021.7 |
| 20260902061122 | 63 | 233 | 0.0 | 0.0 | 0.00 | 0.00 | 0.00 | 89 | 1021.8 |
| 20260902060621 | 62 | 233 | 0.0 | 0.0 | 0.00 | 0.00 | 0.00 | 88 | 1021.7 |
| 20260902060440 | 62 | 235 | 0.0 | 0.0 | 0.00 | 0.00 | 0.00 | 88 | 1021.7 |
| 20260902055623 | 62 | 234 | 0.0 | 0.0 | 0.00 | 0.00 | 0.00 | 88 | 1021.7 |
| 20260902055123 | 61 | 235 | 0.0 | 0.0 | 0.00 | 0.00 | 0.00 | 88 | 1021.6 |
| 20260902054624 | 61 | 235 | 0.0 | 0.0 | 0.00 | 0.00 | 0.00 | 88 | 1021.6 |
| 20260902054122 | 61 | 235 | 0.0 | 0.0 | 0.00 | 0.00 | 0.00 | 88 | 1021.5 |
| 20260902053621 | 61 | 235 | 0.0 | 0.0 | 0.00 | 0.00 | 0.00 | 88 | 1021.5 |
| 20260902053120 | 61 | 235 | 0.0 | 0.0 | 0.00 | 0.00 | 0.00 | 88 | 1021.4 |
| 20260902052621 | 61 | 234 | 0.0 | 0.0 | 0.00 | 0.00 | 0.00 | 88 | 1021.4 |
| 20260902052122 | 61 | 235 | 0.0 | 1.0 | 0.00 | 0.00 | 0.00 | 88 | 1021.4 |
| 20260902051623 | 61 | 233 | 0.0 | 1.0 | 0.00 | 0.00 | 0.00 | 88 | 1021.4 |
| 20260902051121 | 61 | 171 | 0.0 | 0.0 | 0.00 | 0.00 | 0.00 | 88 | 1021.4 |
| 20260902050622 | 61 | 171 | 0.0 | 0.0 | 0.00 | 0.00 | 0.00 | 87 | 1021.5 |
| 20260902050121 | 61 | 171 | 0.0 | 1.0 | 0.00 | 0.00 | 0.00 | 87 | 1021.3 |
| 20260902045618 | 62 | 171 | 0.0 | 1.0 | 0.00 | 0.00 | 0.00 | 87 | 1021.3 |
| 20260902045122 | 62 | 285 | 0.0 | 0.0 | 0.00 | 0.00 | 0.00 | 86 | 1021.2 |
| 20260902044620 | 62 | 285 | 0.0 | 0.0 | 0.00 | 0.00 | 0.00 | 86 | 1021.2 |
| 20260902044120 | 62 | 285 | 0.0 | 0.0 | 0.00 | 0.00 | 0.00 | 86 | 1021.1 |
| 20260902043932 | 62 | 285 | 0.0 | 0.0 | 0.00 | 0.00 | 0.00 | 86 | 1021.1 |
| 20260902043122 | 62 | 286 | 0.0 | 1.0 | 0.00 | 0.00 | 0.00 | 87 | 1021.1 |
| 20260902042623 | 62 | 286 | 0.0 | 1.0 | 0.00 | 0.00 | 0.00 | 86 | 1021.1 |
| 20260902042120 | 62 | 286 | 0.0 | 0.0 | 0.00 | 0.00 | 0.00 | 87 | 1021.1 |
| 20260902041618 | 62 | 286 | 0.0 | 0.0 | 0.00 | 0.00 | 0.00 | 86 | 1021.1 |
| 20260902041119 | 62 | 286 | 0.0 | 0.0 | 0.00 | 0.00 | 0.00 | 86 | 1021.1 |
| 20260902040619 | 62 | 286 | 0.0 | 0.0 | 0.00 | 0.00 | 0.00 | 86 | 1021.2 |
| 20260902040433 | 62 | 286 | 0.0 | 0.0 | 0.00 | 0.00 | 0.00 | 85 | 1021.1 |
| 20260902040047 | 63 | 286 | 0.0 | 0.0 | 0.00 | 0.00 | 0.00 | 84 | 1021.1 |
| 20260902040040 | 63 | 286 | 0.0 | 0.0 | 0.00 | 0.00 | 0.00 | 85 | 1021.1 |
| 20260902034620 | 63 | 286 | 0.0 | 0.0 | 0.00 | 0.00 | 0.00 | 84 | 1021.0 |
| 20260902034120 | 63 | 286 | 0.0 | 0.0 | 0.00 | 0.00 | 0.00 | 84 | 1021.1 |
| 20260902033619 | 63 | 286 | 0.0 | 0.0 | 0.00 | 0.00 | 0.00 | 82 | 1021.1 |
| 20260902033438 | 64 | 286 | 0.0 | 0.0 | 0.00 | 0.00 | 0.00 | 82 | 1021.0 |
| 20260902032620 | 64 | 286 | 0.0 | 0.0 | 0.00 | 0.00 | 0.00 | 81 | 1021.2 |
| 20260902032429 | 64 | 286 | 0.0 | 1.0 | 0.00 | 0.00 | 0.00 | 81 | 1021.1 |
| 20260902031619 | 64 | 286 | 0.0 | 1.0 | 0.00 | 0.00 | 0.00 | 82 | 1021.1 |
| 20260902031122 | 64 | 288 | 0.0 | 1.0 | 0.00 | 0.00 | 0.00 | 82 | 1021.2 |
| 20260902030618 | 64 | 288 | 0.0 | 1.0 | 0.00 | 0.00 | 0.00 | 82 | 1021.0 |
| 20260902030124 | 64 | 286 | 0.0 | 1.0 | 0.00 | 0.00 | 0.00 | 83 | 1021.1 |
| 20260902025619 | 63 | 286 | 0.0 | 1.0 | 0.00 | 0.00 | 0.00 | 84 | 1021.1 |
| 20260902025118 | 63 | 286 | 0.0 | 1.0 | 0.00 | 0.00 | 0.00 | 84 | 1021.1 |
| 20260902024619 | 63 | 286 | 0.0 | 1.0 | 0.00 | 0.00 | 0.00 | 84 | 1021.1 |
| 20260902024116 | 63 | 286 | 0.0 | 1.0 | 0.00 | 0.00 | 0.00 | 84 | 1021.1 |
| 20260902023617 | 63 | 286 | 0.0 | 1.0 | 0.00 | 0.00 | 0.00 | 83 | 1021.1 |
| 20260902023116 | 63 | 286 | 0.0 | 1.0 | 0.00 | 0.00 | 0.00 | 83 | 1021.1 |
| 20260902022620 | 64 | 286 | 0.0 | 1.0 | 0.00 | 0.00 | 0.00 | 83 | 1021.0 |
| 20260902022130 | 64 | 286 | 0.0 | 1.0 | 0.00 | 0.00 | 0.00 | 83 | 1021.0 |
| 20260902021929 | 64 | 286 | 0.0 | 0.0 | 0.00 | 0.00 | 0.00 | 83 | 1020.9 |
| 20260902021133 | 64 | 286 | 0.0 | 0.0 | 0.00 | 0.00 | 0.00 | 82 | 1020.8 |
| 20260902020616 | 64 | 286 | 0.0 | 1.0 | 0.00 | 0.00 | 0.00 | 82 | 1020.8 |
| 20260902020117 | 65 | 286 | 0.0 | 1.0 | 0.00 | 0.00 | 0.00 | 82 | 1020.8 |
| 20260902015617 | 65 | 286 | 0.0 | 1.0 | 0.00 | 0.00 | 0.00 | 82 | 1020.9 |
| 20260902015118 | 64 | 286 | 1.0 | 1.0 | 0.00 | 0.00 | 0.00 | 82 | 1020.9 |
| 20260902014620 | 64 | 286 | 1.0 | 1.0 | 0.00 | 0.00 | 0.00 | 82 | 1021.0 |
| 20260902014119 | 65 | 286 | 1.0 | 1.0 | 0.00 | 0.00 | 0.00 | 81 | 1020.9 |
| 20260902013616 | 65 | 286 | 0.0 | 1.0 | 0.00 | 0.00 | 0.00 | 81 | 1020.8 |
| 20260902013248 | 65 | 286 | 1.0 | 1.0 | 0.00 | 0.00 | 0.00 | 81 | 1021.0 |
| 20260902013216 | 65 | 286 | 1.0 | 1.0 | 0.00 | 0.00 | 0.00 | 80 | 1020.8 |
| 20260902012432 | 65 | 286 | 0.0 | 1.0 | 0.00 | 0.00 | 0.00 | 81 | 1021.0 |
| 20260902011922 | 65 | 286 | 1.0 | 1.0 | 0.00 | 0.00 | 0.00 | 81 | 1020.9 |
| 20260902011116 | 65 | 286 | 1.0 | 2.0 | 0.00 | 0.00 | 0.00 | 80 | 1020.9 |
| 20260902010615 | 66 | 286 | 1.0 | 3.0 | 0.00 | 0.00 | 0.00 | 79 | 1020.9 |
| 20260902010422 | 66 | 286 | 2.0 | 3.0 | 0.00 | 0.00 | 0.00 | 80 | 1020.9 |
| 20260902005616 | 65 | 288 | 1.0 | 2.0 | 0.00 | 0.00 | 0.00 | 80 | 1020.9 |
| 20260902005116 | 65 | 285 | 2.0 | 2.0 | 0.00 | 0.00 | 0.00 | 81 | 1020.7 |
| 20260902004617 | 65 | 283 | 1.0 | 2.0 | 0.00 | 0.00 | 0.00 | 81 | 1020.7 |
| 20260902004115 | 65 | 285 | 2.0 | 2.0 | 0.00 | 0.00 | 0.00 | 80 | 1020.7 |
| 20260902003616 | 65 | 283 | 1.0 | 2.0 | 0.00 | 0.00 | 0.00 | 80 | 1020.7 |
| 20260902003114 | 65 | 285 | 2.0 | 2.0 | 0.00 | 0.00 | 0.00 | 80 | 1020.8 |
| 20260902002612 | 66 | 283 | 2.0 | 2.0 | 0.00 | 0.00 | 0.00 | 79 | 1020.8 |
| 20260902002114 | 66 | 285 | 2.0 | 2.0 | 0.00 | 0.00 | 0.00 | 79 | 1020.8 |
| 20260902001615 | 66 | 285 | 2.0 | 2.0 | 0.00 | 0.00 | 0.00 | 79 | 1020.9 |
| 20260902001243 | 66 | 281 | 2.0 | 2.0 | 0.00 | 0.00 | 0.00 | 80 | 1021.0 |
| 20260902001212 | 66 | 281 | 2.0 | 2.0 | 0.00 | 0.00 | 0.00 | 79 | 1020.9 |
| 20260902000114 | 66 | 279 | 2.0 | 2.0 | 0.00 | 0.00 | 0.00 | 79 | 1020.8 |
| 20260901235615 | 66 | 278 | 0.0 | 1.0 | 0.00 | 0.00 | 0.00 | 79 | 1020.8 |
| 20260901235115 | 66 | 278 | 1.0 | 1.0 | 0.00 | 0.00 | 0.00 | 78 | 1020.8 |
| 20260901234616 | 67 | 278 | 1.0 | 2.0 | 0.00 | 0.00 | 0.00 | 78 | 1020.8 |
| 20260901234114 | 67 | 278 | 1.0 | 2.0 | 0.00 | 0.00 | 0.00 | 77 | 1020.9 |
| 20260901233616 | 67 | 278 | 1.0 | 2.0 | 0.00 | 0.00 | 0.00 | 77 | 1020.8 |
| 20260901233126 | 67 | 278 | 1.0 | 2.0 | 0.00 | 0.00 | 0.00 | 76 | 1020.7 |
| 20260901232613 | 67 | 278 | 1.0 | 2.0 | 0.00 | 0.00 | 0.00 | 76 | 1020.7 |
| 20260901232114 | 67 | 278 | 1.0 | 1.0 | 0.00 | 0.00 | 0.00 | 76 | 1020.7 |
| 20260901231616 | 67 | 278 | 0.0 | 2.0 | 0.00 | 0.00 | 0.00 | 76 | 1020.7 |
| 20260901231113 | 67 | 278 | 0.0 | 2.0 | 0.00 | 0.00 | 0.00 | 76 | 1020.7 |
| 20260901230613 | 67 | 278 | 1.0 | 2.0 | 0.00 | 0.00 | 0.00 | 76 | 1020.7 |
| 20260901230125 | 67 | 278 | 1.0 | 2.0 | 0.00 | 0.00 | 0.00 | 76 | 1020.7 |
| 20260901225611 | 67 | 278 | 1.0 | 2.0 | 0.00 | 0.00 | 0.00 | 76 | 1020.8 |
| 20260901225116 | 67 | 278 | 1.0 | 1.0 | 0.00 | 0.00 | 0.00 | 76 | 1020.8 |
| 20260901224613 | 68 | 276 | 1.0 | 1.0 | 0.00 | 0.00 | 0.00 | 75 | 1020.8 |
| 20260901224113 | 68 | 276 | 1.0 | 1.0 | 0.00 | 0.00 | 0.00 | 75 | 1020.8 |
| 20260901223612 | 69 | 276 | 0.0 | 1.0 | 0.00 | 0.00 | 0.00 | 74 | 1020.7 |
| 20260901223113 | 69 | 278 | 0.0 | 1.0 | 0.00 | 0.00 | 0.00 | 73 | 1020.8 |
| 20260901222613 | 69 | 278 | 1.0 | 1.0 | 0.00 | 0.00 | 0.00 | 72 | 1020.6 |
| 20260901222112 | 69 | 276 | 1.0 | 1.0 | 0.00 | 0.00 | 0.00 | 71 | 1020.6 |
| 20260901221615 | 70 | 278 | 0.0 | 1.0 | 0.00 | 0.00 | 0.00 | 71 | 1020.7 |
| 20260901221232 | 71 | 276 | 0.0 | 1.0 | 0.00 | 0.00 | 0.00 | 70 | 1020.8 |
| 20260901221210 | 70 | 276 | 0.0 | 1.0 | 0.00 | 0.00 | 0.00 | 70 | 1020.6 |
| 20260901220124 | 71 | 276 | 0.0 | 1.0 | 0.00 | 0.00 | 0.00 | 69 | 1020.7 |
| 20260901215612 | 72 | 276 | 0.0 | 1.0 | 0.00 | 0.00 | 0.00 | 67 | 1020.7 |
| 20260901215111 | 72 | 276 | 0.0 | 1.0 | 0.00 | 0.00 | 0.00 | 66 | 1020.7 |
| 20260901214612 | 72 | 278 | 0.0 | 1.0 | 0.00 | 0.00 | 0.00 | 66 | 1020.7 |
| 20260901214112 | 73 | 276 | 0.0 | 1.0 | 0.00 | 0.00 | 0.00 | 66 | 1020.6 |
| 20260901213613 | 73 | 276 | 0.0 | 1.0 | 0.00 | 0.00 | 0.00 | 66 | 1020.7 |
| 20260901213110 | 72 | 276 | 0.0 | 1.0 | 0.00 | 0.00 | 0.00 | 66 | 1020.6 |
| 20260901212920 | 72 | 276 | 0.0 | 1.0 | 0.00 | 0.00 | 0.00 | 66 | 1020.5 |
| 20260901212112 | 72 | 276 | 0.0 | 0.0 | 0.00 | 0.00 | 0.00 | 65 | 1020.5 |
| 20260901211611 | 73 | 276 | 0.0 | 1.0 | 0.00 | 0.00 | 0.00 | 65 | 1020.4 |
| 20260901211110 | 73 | 276 | 0.0 | 1.0 | 0.00 | 0.00 | 0.00 | 64 | 1020.3 |
| 20260901210613 | 73 | 276 | 0.0 | 0.0 | 0.00 | 0.00 | 0.00 | 64 | 1020.3 |
| 20260901210117 | 74 | 276 | 0.0 | 0.0 | 0.00 | 0.00 | 0.00 | 63 | 1020.3 |
| 20260901205612 | 74 | 276 | 0.0 | 0.0 | 0.00 | 0.00 | 0.00 | 64 | 1020.4 |
| 20260901205110 | 74 | 276 | 0.0 | 1.0 | 0.00 | 0.00 | 0.00 | 62 | 1020.3 |
| 20260901204614 | 74 | 282 | 0.0 | 1.0 | 0.00 | 0.00 | 0.00 | 61 | 1020.3 |
| 20260901204110 | 75 | 282 | 0.0 | 1.0 | 0.00 | 0.00 | 0.00 | 61 | 1020.3 |
| 20260901203611 | 75 | 282 | 0.0 | 2.0 | 0.00 | 0.00 | 0.00 | 61 | 1020.2 |
| 20260901203110 | 75 | 283 | 1.0 | 2.0 | 0.00 | 0.00 | 0.00 | 60 | 1020.2 |
| 20260901202610 | 75 | 285 | 1.0 | 2.0 | 0.00 | 0.00 | 0.00 | 60 | 1020.0 |
| 20260901202110 | 75 | 286 | 1.0 | 3.0 | 0.00 | 0.00 | 0.00 | 60 | 1020.2 |
| 20260901201609 | 76 | 288 | 2.0 | 3.0 | 0.00 | 0.00 | 0.00 | 59 | 1020.0 |
| 20260901201111 | 76 | 275 | 1.0 | 2.0 | 0.00 | 0.00 | 0.00 | 59 | 1019.9 |
| 20260901200611 | 76 | 279 | 1.0 | 1.0 | 0.00 | 0.00 | 0.00 | 59 | 1019.7 |
| 20260901200123 | 76 | 279 | 0.0 | 1.0 | 0.00 | 0.00 | 0.00 | 59 | 1019.7 |
| 20260901195622 | 76 | 292 | 0.0 | 2.0 | 0.00 | 0.00 | 0.00 | 58 | 1019.7 |
| 20260901195109 | 76 | 292 | 0.0 | 2.0 | 0.00 | 0.00 | 0.00 | 58 | 1019.5 |
| 20260901194610 | 76 | 289 | 1.0 | 1.0 | 0.00 | 0.00 | 0.00 | 58 | 1019.5 |
| 20260901194111 | 76 | 286 | 1.0 | 2.0 | 0.00 | 0.00 | 0.00 | 58 | 1019.5 |
| 20260901193609 | 76 | 293 | 1.0 | 2.0 | 0.00 | 0.00 | 0.00 | 58 | 1019.5 |
| 20260901193109 | 76 | 281 | 1.0 | 1.0 | 0.00 | 0.00 | 0.00 | 57 | 1019.4 |
| 20260901192610 | 77 | 281 | 0.0 | 1.0 | 0.00 | 0.00 | 0.00 | 57 | 1019.4 |
| 20260901192110 | 77 | 268 | 0.0 | 0.0 | 0.00 | 0.00 | 0.00 | 57 | 1019.2 |
| 20260901191609 | 77 | 268 | 0.0 | 0.0 | 0.00 | 0.00 | 0.00 | 57 | 1019.2 |
| 20260901191110 | 77 | 266 | 0.0 | 0.0 | 0.00 | 0.00 | 0.00 | 56 | 1019.2 |
| 20260901190621 | 77 | 266 | 0.0 | 0.0 | 0.00 | 0.00 | 0.00 | 56 | 1019.1 |
| 20260901190108 | 77 | 266 | 0.0 | 0.0 | 0.00 | 0.00 | 0.00 | 56 | 1019.1 |
| 20260901185918 | 78 | 266 | 0.0 | 0.0 | 0.00 | 0.00 | 0.00 | 56 | 1019.0 |
| 20260901185109 | 78 | 266 | 0.0 | 0.0 | 0.00 | 0.00 | 0.00 | 55 | 1018.9 |
| 20260901184608 | 78 | 266 | 0.0 | 0.0 | 0.00 | 0.00 | 0.00 | 55 | 1018.9 |
| 20260901184109 | 78 | 266 | 0.0 | 1.0 | 0.00 | 0.00 | 0.00 | 55 | 1018.9 |
| 20260901183918 | 78 | 264 | 0.0 | 1.0 | 0.00 | 0.00 | 0.00 | 54 | 1018.8 |
| 20260901183108 | 78 | 264 | 0.0 | 1.0 | 0.00 | 0.00 | 0.00 | 54 | 1018.8 |
| 20260901182606 | 79 | 264 | 0.0 | 1.0 | 0.00 | 0.00 | 0.00 | 54 | 1018.8 |
| 20260901182200 | 79 | 264 | 0.0 | 1.0 | 0.00 | 0.00 | 0.00 | 53 | 1018.7 |
| 20260901181106 | 80 | 264 | 0.0 | 1.0 | 0.00 | 0.00 | 0.00 | 52 | 1018.7 |
| 20260901180608 | 80 | 264 | 0.0 | 1.0 | 0.00 | 0.00 | 0.00 | 52 | 1018.6 |
| 20260901180120 | 80 | 257 | 0.0 | 1.0 | 0.00 | 0.00 | 0.00 | 52 | 1018.7 |
| 20260901175608 | 80 | 257 | 0.0 | 1.0 | 0.00 | 0.00 | 0.00 | 52 | 1018.7 |
| 20260901175212 | 80 | 257 | 0.0 | 1.0 | 0.00 | 0.00 | 0.00 | 52 | 1018.7 |
| 20260901174118 | 80 | 296 | 0.0 | 1.0 | 0.00 | 0.00 | 0.00 | 51 | 1018.6 |
| 20260901173606 | 81 | 305 | 0.0 | 0.0 | 0.00 | 0.00 | 0.00 | 50 | 1018.6 |
| 20260901173106 | 81 | 305 | 0.0 | 0.0 | 0.00 | 0.00 | 0.00 | 49 | 1018.5 |
| 20260901172605 | 81 | 306 | 0.0 | 0.0 | 0.00 | 0.00 | 0.00 | 49 | 1018.6 |
| 20260901172107 | 81 | 306 | 0.0 | 0.0 | 0.00 | 0.00 | 0.00 | 48 | 1018.6 |
| 20260901171916 | 81 | 306 | 0.0 | 1.0 | 0.00 | 0.00 | 0.00 | 48 | 1018.5 |
| 20260901171106 | 81 | 306 | 0.0 | 1.0 | 0.00 | 0.00 | 0.00 | 48 | 1018.5 |
| 20260901170618 | 81 | 337 | 0.0 | 1.0 | 0.00 | 0.00 | 0.00 | 48 | 1018.5 |
| 20260901170118 | 81 | 344 | 0.0 | 2.0 | 0.00 | 0.00 | 0.00 | 48 | 1018.4 |
| 20260901165605 | 81 | 286 | 1.0 | 3.0 | 0.00 | 0.00 | 0.00 | 48 | 1018.4 |
| 20260901165104 | 81 | 276 | 1.0 | 3.0 | 0.00 | 0.00 | 0.00 | 48 | 1018.4 |
| 20260901164604 | 81 | 327 | 1.0 | 2.0 | 0.00 | 0.00 | 0.00 | 47 | 1018.3 |
| 20260901164104 | 82 | 16 | 1.0 | 2.0 | 0.00 | 0.00 | 0.00 | 47 | 1018.3 |
| 20260901163604 | 82 | 293 | 0.0 | 3.0 | 0.00 | 0.00 | 0.00 | 47 | 1018.4 |
| 20260901163106 | 82 | 245 | 0.0 | 4.0 | 0.00 | 0.00 | 0.00 | 47 | 1018.3 |
| 20260901162614 | 82 | 314 | 0.0 | 5.0 | 0.00 | 0.00 | 0.00 | 47 | 1018.3 |
| 20260901162103 | 83 | 313 | 2.0 | 5.0 | 0.00 | 0.00 | 0.00 | 47 | 1018.4 |
| 20260901161604 | 83 | 283 | 1.0 | 2.0 | 0.00 | 0.00 | 0.00 | 47 | 1018.3 |
| 20260901161105 | 83 | 343 | 0.0 | 2.0 | 0.00 | 0.00 | 0.00 | 46 | 1018.4 |
| 20260901160604 | 83 | 358 | 1.0 | 3.0 | 0.00 | 0.00 | 0.00 | 45 | 1018.3 |
| 20260901160117 | 83 | 80 | 1.0 | 3.0 | 0.00 | 0.00 | 0.00 | 45 | 1018.3 |
| 20260901155605 | 84 | 28 | 0.0 | 4.0 | 0.00 | 0.00 | 0.00 | 45 | 1018.3 |
| 20260901155539 | 84 | 353 | 1.0 | 5.0 | 0.00 | 0.00 | 0.00 | 44 | 1018.2 |
| 20260901155533 | 84 | 293 | 1.0 | 5.0 | 0.00 | 0.00 | 0.00 | 45 | 1018.3 |
| 20260901154105 | 84 | 82 | 0.0 | 4.0 | 0.00 | 0.00 | 0.00 | 44 | 1018.2 |
| 20260901153603 | 84 | 89 | 0.0 | 2.0 | 0.00 | 0.00 | 0.00 | 44 | 1018.2 |
| 20260901153104 | 84 | 16 | 0.0 | 1.0 | 0.00 | 0.00 | 0.00 | 42 | 1018.2 |
| 20260901152602 | 84 | 17 | 0.0 | 3.0 | 0.00 | 0.00 | 0.00 | 42 | 1018.2 |
| 20260901152415 | 84 | 326 | 0.0 | 3.0 | 0.00 | 0.00 | 0.00 | 42 | 1018.2 |
| 20260901151604 | 85 | 56 | 0.0 | 4.0 | 0.00 | 0.00 | 0.00 | 42 | 1018.3 |
| 20260901151116 | 84 | 13 | 0.0 | 4.0 | 0.00 | 0.00 | 0.00 | 43 | 1018.3 |
| 20260901150604 | 84 | 82 | 0.0 | 4.0 | 0.00 | 0.00 | 0.00 | 43 | 1018.3 |
| 20260901150115 | 84 | 104 | 2.0 | 4.0 | 0.00 | 0.00 | 0.00 | 43 | 1018.4 |
| 20260901145914 | 84 | 320 | 1.0 | 4.0 | 0.00 | 0.00 | 0.00 | 42 | 1018.3 |
| 20260901145102 | 85 | 258 | 2.0 | 4.0 | 0.00 | 0.00 | 0.00 | 41 | 1018.4 |
| 20260901144602 | 85 | 353 | 0.0 | 2.0 | 0.00 | 0.00 | 0.00 | 42 | 1018.4 |
| 20260901144104 | 85 | 72 | 0.0 | 0.0 | 0.00 | 0.00 | 0.00 | 42 | 1018.4 |
| 20260901143602 | 85 | 72 | 0.0 | 3.0 | 0.00 | 0.00 | 0.00 | 42 | 1018.5 |
| 20260901143418 | 85 | 271 | 0.0 | 3.0 | 0.00 | 0.00 | 0.00 | 42 | 1018.4 |
| 20260901142602 | 85 | 135 | 0.0 | 2.0 | 0.00 | 0.00 | 0.00 | 44 | 1018.4 |
| 20260901142102 | 85 | 76 | 0.0 | 3.0 | 0.00 | 0.00 | 0.00 | 44 | 1018.4 |
| 20260901141601 | 85 | 288 | 1.0 | 3.0 | 0.00 | 0.00 | 0.00 | 43 | 1018.5 |
| 20260901141101 | 85 | 268 | 0.0 | 2.0 | 0.00 | 0.00 | 0.00 | 43 | 1018.5 |
| 20260901140600 | 85 | 0 | 0.0 | 2.0 | 0.00 | 0.00 | 0.00 | 44 | 1018.5 |
| 20260901140111 | 85 | 49 | 0.0 | 5.0 | 0.00 | 0.00 | 0.00 | 43 | 1018.6 |
| 20260901135601 | 84 | 73 | 2.0 | 5.0 | 0.00 | 0.00 | 0.00 | 45 | 1018.6 |
| 20260901135242 | 85 | 358 | 1.0 | 2.0 | 0.00 | 0.00 | 0.00 | 44 | 1018.6 |
| 20260901135207 | 84 | 324 | 0.0 | 5.0 | 0.00 | 0.00 | 0.00 | 44 | 1018.5 |
| 20260901134101 | 85 | 54 | 0.0 | 2.0 | 0.00 | 0.00 | 0.00 | 44 | 1018.7 |
| 20260901133602 | 85 | 85 | 0.0 | 3.0 | 0.00 | 0.00 | 0.00 | 46 | 1018.7 |
| 20260901133101 | 84 | 353 | 0.0 | 4.0 | 0.00 | 0.00 | 0.00 | 46 | 1018.9 |
| 20260901132600 | 84 | 274 | 2.0 | 4.0 | 0.00 | 0.00 | 0.00 | 45 | 1018.8 |
| 20260901132102 | 85 | 45 | 0.0 | 3.0 | 0.00 | 0.00 | 0.00 | 47 | 1018.9 |
| 20260901131601 | 84 | 285 | 0.0 | 3.0 | 0.00 | 0.00 | 0.00 | 46 | 1018.9 |
| 20260901131100 | 84 | 71 | 1.0 | 4.0 | 0.00 | 0.00 | 0.00 | 47 | 1018.9 |
| 20260901130600 | 83 | 282 | 0.0 | 4.0 | 0.00 | 0.00 | 0.00 | 50 | 1019.0 |
| 20260901130428 | 83 | 289 | 2.0 | 4.0 | 0.00 | 0.00 | 0.00 | 48 | 1019.0 |
| 20260901125600 | 83 | 289 | 1.0 | 3.0 | 0.00 | 0.00 | 0.00 | 48 | 1019.0 |
| 20260901125100 | 83 | 293 | 1.0 | 3.0 | 0.00 | 0.00 | 0.00 | 49 | 1018.9 |
| 20260901124558 | 83 | 104 | 0.0 | 3.0 | 0.00 | 0.00 | 0.00 | 49 | 1019.1 |
| 20260901124101 | 82 | 114 | 1.0 | 7.0 | 0.00 | 0.00 | 0.00 | 50 | 1019.1 |
| 20260901123558 | 82 | 82 | 4.0 | 7.0 | 0.00 | 0.00 | 0.00 | 50 | 1019.1 |
| 20260901123059 | 82 | 85 | 4.0 | 9.0 | 0.00 | 0.00 | 0.00 | 50 | 1019.1 |
| 20260901122600 | 82 | 78 | 3.0 | 9.0 | 0.00 | 0.00 | 0.00 | 50 | 1019.2 |
| 20260901122059 | 82 | 131 | 2.0 | 4.0 | 0.00 | 0.00 | 0.00 | 50 | 1019.3 |
| 20260901121600 | 82 | 75 | 0.0 | 7.0 | 0.00 | 0.00 | 0.00 | 49 | 1019.2 |
| 20260901121059 | 82 | 125 | 2.0 | 7.0 | 0.00 | 0.00 | 0.00 | 50 | 1019.3 |
| 20260901120559 | 82 | 117 | 0.0 | 3.0 | 0.00 | 0.00 | 0.00 | 50 | 1019.6 |
| 20260901120112 | 82 | 56 | 1.0 | 4.0 | 0.00 | 0.00 | 0.00 | 50 | 1019.6 |
| 20260901115558 | 81 | 117 | 2.0 | 5.0 | 0.00 | 0.00 | 0.00 | 51 | 1019.6 |
| 20260901115057 | 81 | 127 | 2.0 | 5.0 | 0.00 | 0.00 | 0.00 | 50 | 1019.7 |
| 20260901114559 | 81 | 351 | 0.0 | 4.0 | 0.00 | 0.00 | 0.00 | 50 | 1019.7 |
| 20260901114058 | 81 | 320 | 0.0 | 6.0 | 0.00 | 0.00 | 0.00 | 51 | 1019.7 |
| 20260901113556 | 81 | 127 | 2.0 | 6.0 | 0.00 | 0.00 | 0.00 | 51 | 1019.9 |